Location: Kermapucano
(48.0667°N, 3.3000°W)
Time: 20:54:56
(UTC+00:00)

EO 1 Delta rocket - Pass Details

Date: 29 November 2020
Orbit: 698 x 1791 km, 95.4° (Epoch: 27 January)

Event Time Altitude Azimuth Distance (km) Brightness Sun altitude
Rises 05:37:26 0° 164° (SSE) 3,371 7.7 -19.8°
Reaches altitude 10° 05:39:54 10° 163° (SSE) 2,341 6.9 -19.4°
Maximum altitude 05:44:53 76° 78° (ENE) 746 4.0 -18.6°
Drops below altitude 10° 05:49:30 10° 353° (N) 2,173 6.2 -17.8°
Sets 05:51:44 0° 352° (N) 3,109 6.9 -17.5°
